| time (UTC) | temp F | wind direction | speed knots | gust knots | rain 1hr in | rain 24hr in | rain mn in | humidity % | barometer mb |
| 20260904163049 | 86 | 150 | 2.6 | 7.8 | 0.00 | 0.00 | 0.00 | 73 | 1012.8 |
| 20260904161601 | 86 | 153 | 1.7 | 5.2 | 0.00 | 0.00 | 0.00 | 73 | 1012.9 |
| 20260904160011 | 85 | 148 | 2.6 | 6.1 | 0.00 | 0.00 | 0.00 | 72 | 1012.8 |
| 20260904154527 | 85 | 168 | 1.7 | 5.2 | 0.00 | 0.00 | 0.00 | 74 | 1012.8 |
| 20260904153102 | 84 | 148 | 2.6 | 4.3 | 0.00 | 0.00 | 0.00 | 76 | 1012.6 |
| 20260904151557 | 83 | 134 | 2.6 | 5.2 | 0.00 | 0.00 | 0.00 | 79 | 1012.5 |
| 20260904150014 | 82 | 166 | 2.6 | 6.1 | 0.00 | 0.00 | 0.00 | 81 | 1012.4 |
| 20260904144539 | 82 | 146 | 1.7 | 7.0 | 0.00 | 0.00 | 0.00 | 82 | 1012.5 |
| 20260904143003 | 81 | 143 | 1.7 | 4.3 | 0.00 | 0.00 | 0.00 | 82 | 1012.5 |
| 20260904141520 | 81 | 154 | 2.6 | 6.1 | 0.00 | 0.00 | 0.00 | 83 | 1012.4 |
| 20260904140042 | 81 | 160 | 3.5 | 7.0 | 0.00 | 0.00 | 0.00 | 84 | 1012.3 |
| 20260904134557 | 80 | 169 | 1.7 | 5.2 | 0.00 | 0.00 | 0.00 | 86 | 1012.4 |
| 20260904133009 | 79 | 131 | 0.9 | 4.3 | 0.00 | 0.00 | 0.00 | 87 | 1012.3 |
| 20260904131528 | 78 | 148 | 1.7 | 4.3 | 0.00 | 0.00 | 0.00 | 88 | 1012.3 |
| 20260904130050 | 77 | 154 | 0.9 | 4.3 | 0.00 | 0.00 | 0.00 | 88 | 1012.1 |
| 20260904124605 | 77 | 167 | 0.0 | 1.7 | 0.00 | 0.00 | 0.00 | 88 | 1012.0 |
| 20260904123043 | 76 | 152 | 0.0 | 1.7 | 0.00 | 0.00 | 0.00 | 89 | 1011.9 |
| 20260904121506 | 76 | 152 | 0.0 | 0.9 | 0.00 | 0.00 | 0.00 | 89 | 1011.8 |
| 20260904120044 | 75 | 141 | 0.0 | 0.9 | 0.00 | 0.00 | 0.00 | 88 | 1011.7 |
| 20260904114554 | 75 | 146 | 0.0 | 0.9 | 0.00 | 0.00 | 0.00 | 88 | 1011.3 |
| 20260904113007 | 75 | 141 | 0.0 | 0.9 | 0.00 | 0.00 | 0.00 | 88 | 1011.3 |
| 20260904111525 | 75 | 160 | 0.0 | 0.9 | 0.00 | 0.00 | 0.00 | 88 | 1011.2 |
| 20260904110044 | 75 | 155 | 0.0 | 0.0 | 0.00 | 0.00 | 0.00 | 88 | 1011.1 |
| 20260904104601 | 75 | 160 | 0.0 | 0.0 | 0.00 | 0.00 | 0.00 | 88 | 1010.9 |
| 20260904103014 | 75 | 150 | 0.0 | 0.0 | 0.00 | 0.00 | 0.00 | 88 | 1011.0 |
| 20260904101535 | 75 | 148 | 0.0 | 0.0 | 0.00 | 0.00 | 0.00 | 88 | 1011.0 |
| 20260904100049 | 75 | 174 | 0.0 | 0.0 | 0.00 | 0.00 | 0.00 | 88 | 1010.9 |
| 20260904094517 | 75 | 183 | 0.0 | 0.0 | 0.00 | 0.00 | 0.00 | 87 | 1010.9 |
| 20260904093048 | 75 | 159 | 0.0 | 0.0 | 0.00 | 0.00 | 0.00 | 87 | 1010.7 |
| 20260904091600 | 75 | 153 | 0.0 | 0.0 | 0.00 | 0.00 | 0.00 | 87 | 1010.6 |
| 20260904090033 | 75 | 146 | 0.0 | 0.0 | 0.00 | 0.00 | 0.00 | 87 | 1010.7 |
| 20260904084600 | 75 | 156 | 0.0 | 0.0 | 0.00 | 0.00 | 0.00 | 87 | 1010.6 |
| 20260904083017 | 76 | 140 | 0.0 | 0.0 | 0.00 | 0.00 | 0.00 | 86 | 1010.6 |
| 20260904081535 | 76 | 134 | 0.0 | 0.0 | 0.00 | 0.00 | 0.00 | 86 | 1010.8 |
| 20260904080113 | 77 | 136 | 0.0 | 0.0 | 0.00 | 0.00 | 0.00 | 85 | 1010.8 |
| 20260904074506 | 77 | 127 | 0.0 | 0.0 | 0.00 | 0.00 | 0.00 | 84 | 1010.9 |
| 20260904073024 | 78 | 129 | 0.0 | 0.9 | 0.00 | 0.00 | 0.00 | 84 | 1011.1 |
| 20260904071554 | 79 | 140 | 0.0 | 2.6 | 0.00 | 0.00 | 0.00 | 83 | 1011.1 |
| 20260904070027 | 79 | 153 | 0.9 | 3.5 | 0.00 | 0.00 | 0.00 | 83 | 1011.2 |
| 20260904064540 | 80 | 142 | 1.7 | 6.1 | 0.00 | 0.00 | 0.00 | 83 | 1011.2 |
| 20260904063113 | 80 | 153 | 2.6 | 6.1 | 0.00 | 0.00 | 0.00 | 82 | 1011.2 |
| 20260904061508 | 80 | 150 | 2.6 | 7.0 | 0.00 | 0.00 | 0.00 | 82 | 1011.4 |
| 20260904060028 | 80 | 142 | 3.5 | 6.1 | 0.00 | 0.00 | 0.00 | 81 | 1011.5 |
| 20260904054547 | 81 | 168 | 2.6 | 7.8 | 0.00 | 0.00 | 0.00 | 81 | 1011.4 |
| 20260904053125 | 81 | 148 | 3.5 | 7.8 | 0.00 | 0.00 | 0.00 | 81 | 1011.2 |
| 20260904051514 | 81 | 148 | 5.2 | 9.6 | 0.00 | 0.00 | 0.00 | 81 | 1011.1 |
| 20260904050041 | 81 | 130 | 2.6 | 7.0 | 0.00 | 0.00 | 0.00 | 80 | 1011.0 |
| 20260904044513 | 81 | 146 | 3.5 | 7.8 | 0.00 | 0.00 | 0.00 | 79 | 1011.0 |
| 20260904043051 | 81 | 148 | 3.5 | 9.6 | 0.00 | 0.00 | 0.00 | 78 | 1010.9 |
| 20260904041603 | 82 | 120 | 4.3 | 7.8 | 0.00 | 0.00 | 0.00 | 78 | 1011.0 |
| 20260904040015 | 82 | 152 | 3.5 | 7.8 | 0.00 | 0.00 | 0.00 | 77 | 1010.9 |
| 20260904034532 | 82 | 157 | 5.2 | 8.7 | 0.00 | 0.00 | 0.00 | 75 | 1010.9 |
| 20260904033048 | 83 | 141 | 5.2 | 13.0 | 0.00 | 0.00 | 0.00 | 74 | 1010.6 |
| 20260904031603 | 84 | 165 | 7.0 | 13.0 | 0.00 | 0.00 | 0.00 | 71 | 1010.4 |
| 20260904030018 | 84 | 158 | 7.0 | 13.9 | 0.00 | 0.00 | 0.00 | 68 | 1010.3 |
| 20260904024533 | 85 | 144 | 7.0 | 15.6 | 0.00 | 0.00 | 0.00 | 65 | 1009.9 |
| 20260904023053 | 85 | 139 | 7.0 | 13.0 | 0.00 | 0.00 | 0.00 | 65 | 1009.7 |
| 20260904021528 | 85 | 189 | 5.2 | 11.3 | 0.00 | 0.00 | 0.00 | 64 | 1009.4 |
| 20260904020056 | 84 | 170 | 4.3 | 7.8 | 0.00 | 0.00 | 0.00 | 66 | 1009.2 |
| 20260904014608 | 85 | 148 | 1.7 | 6.1 | 0.00 | 0.00 | 0.00 | 65 | 1008.9 |
| 20260904013015 | 85 | 144 | 3.5 | 7.8 | 0.00 | 0.00 | 0.00 | 63 | 1008.8 |
| 20260904011537 | 85 | 148 | 3.5 | 7.8 | 0.00 | 0.00 | 0.00 | 63 | 1008.8 |
| 20260904010052 | 84 | 154 | 2.6 | 8.7 | 0.00 | 0.00 | 0.00 | 65 | 1008.6 |
| 20260904004503 | 83 | 167 | 4.3 | 11.3 | 0.00 | 0.00 | 0.00 | 68 | 1008.4 |
| 20260904003019 | 85 | 155 | 3.5 | 16.5 | 0.00 | 0.00 | 0.00 | 65 | 1008.4 |
| 20260904001536 | 87 | 169 | 7.0 | 14.8 | 0.00 | 0.00 | 0.00 | 60 | 1008.2 |
| 20260904000051 | 90 | 158 | 7.8 | 15.6 | 0.00 | 0.00 | 0.00 | 54 | 1007.8 |
| 20260903234513 | 97 | 140 | 5.2 | 10.4 | 0.00 | 0.00 | 0.00 | 44 | 1007.5 |
| 20260903233040 | 100 | 124 | 1.7 | 9.6 | 0.00 | 0.00 | 0.00 | 35 | 1007.2 |
| 20260903231603 | 101 | 150 | 4.3 | 9.6 | 0.00 | 0.00 | 0.00 | 35 | 1007.0 |
| 20260903230012 | 100 | 132 | 1.7 | 7.8 | 0.00 | 0.00 | 0.00 | 35 | 1006.9 |
| 20260903224539 | 100 | 148 | 2.6 | 8.7 | 0.00 | 0.00 | 0.00 | 35 | 1006.9 |
| 20260903223054 | 99 | 160 | 4.3 | 10.4 | 0.00 | 0.00 | 0.00 | 35 | 1006.9 |
| 20260903221505 | 101 | 148 | 2.6 | 7.8 | 0.00 | 0.00 | 0.00 | 35 | 1007.1 |
| 20260903220033 | 101 | 146 | 2.6 | 7.8 | 0.00 | 0.00 | 0.00 | 34 | 1007.2 |
| 20260903214544 | 101 | 148 | 3.5 | 7.8 | 0.00 | 0.00 | 0.00 | 35 | 1007.2 |
| 20260903213108 | 100 | 158 | 2.6 | 8.7 | 0.00 | 0.00 | 0.00 | 36 | 1007.5 |
| 20260903211533 | 99 | 169 | 0.9 | 6.1 | 0.00 | 0.00 | 0.00 | 37 | 1007.7 |
| 20260903210127 | 101 | 137 | 4.3 | 11.3 | 0.00 | 0.00 | 0.00 | 36 | 1007.9 |
| 20260903204506 | 101 | 169 | 1.7 | 5.2 | 0.00 | 0.00 | 0.00 | 35 | 1008.1 |
| 20260903203023 | 101 | 152 | 2.6 | 7.8 | 0.00 | 0.00 | 0.00 | 36 | 1008.3 |
| 20260903201541 | 100 | 153 | 4.3 | 8.7 | 0.00 | 0.00 | 0.00 | 37 | 1008.5 |
| 20260903200114 | 100 | 158 | 1.7 | 7.8 | 0.00 | 0.00 | 0.00 | 38 | 1008.6 |
| 20260903194514 | 100 | 143 | 3.5 | 9.6 | 0.00 | 0.00 | 0.00 | 38 | 1008.8 |
| 20260903193029 | 99 | 125 | 1.7 | 8.7 | 0.00 | 0.00 | 0.00 | 40 | 1008.9 |
| 20260903191527 | 99 | 148 | 1.7 | 7.8 | 0.00 | 0.00 | 0.00 | 41 | 1009.2 |
| 20260903190036 | 98 | 170 | 2.6 | 7.0 | 0.00 | 0.00 | 0.00 | 42 | 1009.5 |
| 20260903184537 | 98 | 139 | 4.3 | 7.8 | 0.00 | 0.00 | 0.00 | 44 | 1009.8 |
| 20260903183057 | 97 | 144 | 2.6 | 8.7 | 0.00 | 0.00 | 0.00 | 47 | 1010.0 |
| 20260903181507 | 96 | 140 | 6.1 | 10.4 | 0.00 | 0.00 | 0.00 | 44 | 1010.3 |
| 20260903180026 | 96 | 158 | 3.5 | 7.8 | 0.00 | 0.00 | 0.00 | 47 | 1010.5 |
| 20260903174544 | 95 | 158 | 2.6 | 8.7 | 0.00 | 0.00 | 0.00 | 48 | 1010.8 |
| 20260903173100 | 95 | 146 | 2.6 | 9.6 | 0.00 | 0.00 | 0.00 | 51 | 1011.0 |
| 20260903171515 | 93 | 139 | 3.5 | 7.8 | 0.00 | 0.00 | 0.00 | 51 | 1011.4 |
| 20260903170042 | 92 | 155 | 5.2 | 10.4 | 0.00 | 0.00 | 0.00 | 55 | 1011.6 |
| 20260903164550 | 91 | 155 | 5.2 | 9.6 | 0.00 | 0.00 | 0.00 | 57 | 1011.7 |